Content
SEND FEEDBACK

Daily
Averages
Monthly
Summary
United States of America

STANLEY, NORTH DAKOTA


Home > North America > United States > North Dakota
Elevation: 2295 feet     Latitude: 48 21N     Longitude: 102 25W

WEATHER
 
SELECT A DAY
Number of Records: 88,967;   Date Range: 12/7/10 - 11/21/14
 
SHARE

PRINT THIS DATA

[ ← Previous Day ]
WEATHER ALMANAC - MARCH 15, 2014
[ Next Day → ]
[ °C ]   °F
Weather ElementAverageHighLow
Temperature19.1 °F23 °F (12:35 am)12.2 °F (9:15 am)
Dewpoint13.7 °F23 °F (12:35 am)6.8 °F (11:15 am)
Humidity80.6 %100 % (12:35 am)63 % (1:55 pm)
Barometer30.18 in30.36 in (7:35 pm)29.90 in (12:35 am)
Wind Speed10.9 mph17.3 mph (7:55 am)
Wind Gust24.2 mph (6:55 am)
Weather ElementAverage
Visibility9.2 mi
Wind DirectionESE (110.3 °)

Weather ElementTotal
Precipitation0.33 in
Heating Degree Days47.4 (Base 65)
Averaged from 71 records on March 15, 2014
WEATHER CONDITIONS BREAKOUT
WIND DIRECTION BREAKOUT
WEATHER BY HOUR - MARCH 15, 2014
[ °C ]   °F
Local TimeTemperatureDewpointHumidityBarometerVisibilityWind DirectionWind SpeedGust SpeedPrecipitationEventsConditions
12:35 AM23.0 °F23.0 °F100 %29.90 in10.0 miESE (110°)12.7 mphOvercast
12:55 AM23.0 °F23.0 °F100 %29.91 in10.0 miEast (100°)10.4 mphOvercast
1:15 AM23.0 °F23.0 °F100 %29.91 in10.0 miEast (100°)11.5 mphOvercast
1:35 AM23.0 °F23.0 °F100 %29.91 in10.0 miESE (110°)11.5 mphOvercast
1:55 AM23.0 °F23.0 °F100 %29.92 in10.0 miESE (110°)10.4 mphOvercast
2:15 AM23.0 °F23.0 °F100 %29.92 in10.0 miESE (110°)9.2 mphOvercast
2:35 AM23.0 °F23.0 °F100 %29.93 in5.0 miEast (100°)10.4 mphSnowLight Snow
2:55 AM23.0 °F23.0 °F100 %29.93 in6.0 miEast (90°)8.1 mph0.01 inSnowLight Snow
3:15 AM23.0 °F23.0 °F100 %29.93 in3.0 miEast (80°)10.4 mph0.02 inSnowLight Snow
3:35 AM23.0 °F23.0 °F100 %29.93 in5.0 miEast (80°)8.1 mph0.04 inSnowLight Snow
3:55 AM23.0 °F23.0 °F100 %29.94 in3.0 miEast (80°)6.9 mph0.08 inSnowLight Snow
4:15 AM23.0 °F23.0 °F100 %29.95 in10.0 miEast (90°)9.2 mphSnowLight Snow
4:35 AM23.0 °F23.0 °F100 %29.95 in9.0 miEast (80°)6.9 mph0.01 inSnowLight Snow
4:55 AM23.0 °F23.0 °F100 %29.95 in10.0 miENE (70°)6.9 mph0.03 inSnowLight Snow
5:15 AM23.0 °F23.0 °F100 %29.96 in10.0 miEast (80°)11.5 mphSnowLight Snow
5:35 AM21.2 °F21.2 °F100 %29.97 in2.5 miENE (70°)12.7 mph19.6 mph0.03 inSnowLight Snow
5:55 AM19.4 °F19.4 °F100 %29.99 in5.0 miEast (80°)15.0 mph19.6 mph0.07 inSnowLight Snow
6:15 AM19.4 °F19.4 °F100 %30.00 in8.0 miEast (90°)11.5 mph21.9 mphSnowLight Snow
6:35 AM17.6 °F17.6 °F100 %30.01 in8.0 miEast (90°)12.7 mph23.0 mph0.02 inSnowLight Snow
6:55 AM17.6 °F15.8 °F93 %30.02 in10.0 miEast (80°)13.8 mph24.2 mph0.02 inSnowLight Snow
7:15 AM15.8 °F15.8 °F100 %30.03 in10.0 miEast (80°)15.0 mph19.6 mphSnowLight Snow
7:35 AM15.8 °F14.0 °F93 %30.05 in10.0 miEast (80°)12.7 mph23.0 mphSnowLight Snow
7:55 AM14.0 °F14.0 °F100 %30.07 in10.0 miEast (80°)17.3 mph21.9 mphSnowLight Snow
8:15 AM14.0 °F10.4 °F86 %30.08 in9.0 miEast (80°)16.1 mph21.9 mphSnowLight Snow
8:35 AM14.0 °F8.6 °F79 %30.10 in10.0 miEast (80°)15.0 mph24.2 mphSnowLight Snow
8:55 AM14.0 °F8.6 °F79 %30.12 in8.0 miEast (80°)12.7 mph19.6 mphSnowLight Snow
9:15 AM12.2 °F8.6 °F85 %30.14 in10.0 miENE (70°)12.7 mph23.0 mphScattered Clouds
9:35 AM12.2 °F8.6 °F85 %30.15 in10.0 miEast (80°)15.0 mphOvercast
9:55 AM14.0 °F8.6 °F79 %30.17 in10.0 miEast (90°)15.0 mph18.4 mphOvercast
10:15 AM14.0 °F8.6 °F79 %30.18 in10.0 miEast (80°)13.8 mph18.4 mphSnowLight Snow
10:35 AM14.0 °F8.6 °F79 %30.19 in6.0 miEast (100°)13.8 mph19.6 mphSnowLight Snow
10:55 AM14.0 °F8.6 °F79 %30.20 in5.0 miEast (80°)13.8 mph21.9 mphSnowLight Snow
11:15 AM14.0 °F6.8 °F73 %30.22 in10.0 miEast (90°)10.4 mphSnowLight Snow
11:35 AM14.0 °F6.8 °F73 %30.22 in10.0 miEast (90°)13.8 mph18.4 mphClear
11:55 AM14.0 °F6.8 °F73 %30.23 in10.0 miENE (70°)11.5 mph17.3 mphScattered Clouds
12:15 PM14.0 °F6.8 °F73 %30.25 in10.0 miEast (100°)13.8 mphMostly Cloudy
12:35 PM15.8 °F6.8 °F68 %30.27 in10.0 miEast (90°)11.5 mph16.1 mphOvercast
12:55 PM15.8 °F6.8 °F68 %30.28 in10.0 miEast (80°)9.2 mphOvercast
1:15 PM15.8 °F6.8 °F68 %30.29 in10.0 miENE (70°)9.2 mph17.3 mphOvercast
1:35 PM15.8 °F6.8 °F68 %30.30 in10.0 miEast (80°)9.2 mphOvercast
1:55 PM17.6 °F6.8 °F63 %30.31 in10.0 miEast (90°)9.2 mphOvercast
2:15 PM17.6 °F6.8 °F63 %30.32 in10.0 miEast (90°)10.4 mphOvercast
2:35 PM17.6 °F8.6 °F68 %30.32 in10.0 miEast (100°)8.1 mphOvercast
2:55 PM19.4 °F8.6 °F63 %30.32 in10.0 miESE (110°)9.2 mphOvercast
3:15 PM19.4 °F8.6 °F63 %30.32 in10.0 miESE (110°)9.2 mphOvercast
3:35 PM19.4 °F8.6 °F63 %30.33 in10.0 miESE (120°)10.4 mphOvercast
3:55 PM19.4 °F8.6 °F63 %30.33 in10.0 miESE (120°)6.9 mphOvercast
4:15 PM19.4 °F10.4 °F68 %30.34 in10.0 miSE (140°)8.1 mphOvercast
4:35 PM19.4 °F10.4 °F68 %30.34 in10.0 miSE (130°)10.4 mphOvercast
4:55 PM19.4 °F10.4 °F68 %30.34 in10.0 miESE (120°)6.9 mphOvercast
5:15 PM21.2 °F10.4 °F63 %30.34 in10.0 miSE (140°)8.1 mphOvercast
5:35 PM19.4 °F10.4 °F68 %30.35 in10.0 miSE (130°)8.1 mphOvercast
5:55 PM19.4 °F10.4 °F68 %30.35 in10.0 miSE (130°)6.9 mphOvercast
6:15 PM19.4 °F10.4 °F68 %30.35 in10.0 miSE (140°)8.1 mphOvercast
6:35 PM21.2 °F10.4 °F63 %30.35 in10.0 miSE (130°)8.1 mphOvercast
6:55 PM21.2 °F12.2 °F68 %30.35 in10.0 miSSE (150°)9.2 mphOvercast
7:15 PM21.2 °F12.2 °F68 %30.35 in10.0 miSE (140°)8.1 mphOvercast
7:35 PM21.2 °F12.2 °F68 %30.36 in10.0 miSE (140°)8.1 mphOvercast
7:55 PM21.2 °F12.2 °F68 %30.35 in10.0 miSSE (150°)9.2 mphOvercast
8:15 PM21.2 °F12.2 °F68 %30.35 in10.0 miSSE (150°)9.2 mphOvercast
8:35 PM21.2 °F14.0 °F74 %30.36 in10.0 miSE (140°)8.1 mphOvercast
8:55 PM21.2 °F14.0 °F74 %30.36 in10.0 miSSE (150°)10.4 mphOvercast
9:15 PM21.2 °F14.0 °F74 %30.36 in10.0 miSouth (170°)11.5 mphOvercast
9:35 PM21.2 °F14.0 °F74 %30.36 in10.0 miSouth (180°)12.7 mphOvercast
9:55 PM21.2 °F14.0 °F74 %30.35 in10.0 miSouth (170°)12.7 mphOvercast
10:15 PM21.2 °F14.0 °F74 %30.35 in10.0 miSouth (170°)12.7 mphOvercast
10:35 PM21.2 °F15.8 °F80 %30.34 in10.0 miSouth (180°)15.0 mphOvercast
10:55 PM21.2 °F15.8 °F80 %30.34 in10.0 miSouth (170°)13.8 mphOvercast
11:15 PM21.2 °F14.0 °F74 %30.34 in10.0 miSouth (170°)12.7 mphOvercast
11:35 PM21.2 °F14.0 °F74 %30.34 in10.0 miSouth (180°)10.4 mphOvercast
11:55 PM21.2 °F14.0 °F74 %30.33 in10.0 miSouth (170°)11.5 mphOvercast
Hourly data recorded from K08D, located miles away from Stanley, North Dakota







STORIES FROM OUR PARTNERS